This is the latest recevied weather packets stored in our database for station/object JR5YHL-13. If no packets are shown the sender has not sent any weather packets the latest 10 day(s).
| Time | Temp. | Humidity | Pressure | Rain* | Wind** | Luminosity | Snow |
|---|---|---|---|---|---|---|---|
| 1777456706 | 21.11° C | 71% | 1014.7 hPa | 0 mm | - | - | - |
| 1777456108 | 20.56° C | 69% | 1014.8 hPa | 0 mm | - | - | - |
| 1777455510 | 21.11° C | 65% | 1014.6 hPa | 0 mm | - | - | - |
| 1777454912 | 21.67° C | 64% | 1014.3 hPa | 0 mm | - | - | - |
| 1777454314 | 22.22° C | 57% | 1014.2 hPa | 0 mm | - | - | - |
| 1777453717 | 22.22° C | 55% | 1013.9 hPa | 0 mm | - | - | - |
| 1777453119 | 22.78° C | 56% | 1013.8 hPa | 0 mm | - | - | - |
| 1777452521 | 22.78° C | 51% | 1013.8 hPa | 0 mm | - | - | - |
| 1777451923 | 23.33° C | 49% | 1013.5 hPa | 0 mm | - | - | - |
| 1777451325 | 23.33° C | 45% | 1013.5 hPa | 0 mm | - | - | - |
| 1777450727 | 23.33° C | 47% | 1013.5 hPa | 0 mm | - | - | - |
| 1777450129 | 23.33° C | 46% | 1013.5 hPa | 0 mm | - | - | - |
| 1777449531 | 23.33° C | 46% | 1013.3 hPa | 0 mm | - | - | - |
| 1777448933 | 23.33° C | 45% | 1013.3 hPa | 0 mm | - | - | - |
| 1777448335 | 23.33° C | 42% | 1013.2 hPa | 0 mm | - | - | - |
| 1777447737 | 23.33° C | 44% | 1013 hPa | 0 mm | - | - | - |
| 1777447139 | 23.33° C | 41% | 1012.9 hPa | 0 mm | - | - | - |
| 1777446542 | 23.89° C | 40% | 1012.6 hPa | 0 mm | - | - | - |
| 1777445944 | 24.44° C | 41% | 1012.5 hPa | 0 mm | - | - | - |
| 1777445346 | 25° C | 39% | 1012.3 hPa | 0 mm | - | - | - |
| 1777444749 | 25° C | 37% | 1012.4 hPa | 0 mm | - | - | - |
| 1777444151 | 25.56° C | 38% | 1012.4 hPa | 0 mm | - | - | - |
| 1777443553 | 25.56° C | 37% | 1012.2 hPa | 0 mm | - | - | - |
| 1777442955 | 25° C | 36% | 1012 hPa | 0 mm | - | - | - |
| 1777442358 | 25.56° C | 36% | 1012 hPa | 0 mm | - | - | - |
* Rain latest hour (hover to see other rain measurements)
** Current wind speed in m/s (hover to see current wind gust speed)